Time,TemperatureF,DewpointF,PressureIn,WindDirection,WindDirectionDegrees,WindSpeedMPH,WindSpeedGustMPH,Humidity,HourlyPrecipIn,Conditions,Clouds,dailyrainin,SolarRadiationWatts/m^2,SoftwareType,DateUTC
2013-07-01 00:01:00,57.0,53.0,-100.00,South,177,1.0,3.0,86,0.00,,,0.00,5.000000,,2013-07-01 08:01:00,
2013-07-01 00:11:00,57.0,53.0,-100.00,South,177,1.0,3.0,86,0.00,,,0.00,5.000000,,2013-07-01 08:11:00,
2013-07-01 00:22:00,57.0,53.0,-100.00,South,177,1.0,3.0,86,0.00,,,0.00,5.000000,,2013-07-01 08:22:00,
2013-07-01 00:43:00,54.0,50.0,-100.00,South,174,1.0,2.0,89,0.00,,,0.00,0.000000,,2013-07-01 08:43:00,
2013-07-01 00:52:00,54.0,50.0,-100.00,South,174,1.0,2.0,89,0.00,,,0.00,0.000000,,2013-07-01 08:52:00,
2013-07-01 01:02:00,54.0,50.0,-100.00,South,174,1.0,2.0,89,0.00,,,0.00,0.000000,,2013-07-01 09:02:00,
2013-07-01 01:11:00,54.0,50.0,-100.00,South,174,1.0,2.0,89,0.00,,,0.00,0.000000,,2013-07-01 09:11:00,
2013-07-01 01:22:00,54.0,50.0,-100.00,South,174,1.0,2.0,89,0.00,,,0.00,0.000000,,2013-07-01 09:22:00,
2013-07-01 01:53:00,52.0,50.0,-100.00,South,169,1.0,2.0,95,0.00,,,0.00,0.000000,,2013-07-01 09:53:00,
2013-07-01 02:03:00,52.0,50.0,-100.00,South,169,1.0,2.0,95,0.00,,,0.00,0.000000,,2013-07-01 10:03:00,
2013-07-01 02:11:00,52.0,50.0,-100.00,South,169,1.0,2.0,95,0.00,,,0.00,0.000000,,2013-07-01 10:11:00,
2013-07-01 02:22:00,52.0,50.0,-100.00,South,169,1.0,2.0,95,0.00,,,0.00,0.000000,,2013-07-01 10:22:00,
2013-07-01 02:43:00,50.0,49.0,-100.00,SSE,168,1.0,2.0,98,0.00,,,0.00,0.000000,,2013-07-01 10:43:00,
2013-07-01 02:52:00,50.0,49.0,-100.00,SSE,168,1.0,2.0,98,0.00,,,0.00,0.000000,,2013-07-01 10:52:00,
2013-07-01 03:02:00,50.0,49.0,-100.00,SSE,168,1.0,2.0,98,0.00,,,0.00,0.000000,,2013-07-01 11:02:00,
2013-07-01 03:11:00,50.0,49.0,-100.00,SSE,168,1.0,2.0,98,0.00,,,0.00,0.000000,,2013-07-01 11:11:00,
2013-07-01 03:22:00,50.0,49.0,-100.00,SSE,168,1.0,2.0,98,0.00,,,0.00,0.000000,,2013-07-01 11:22:00,
2013-07-01 03:43:00,48.0,48.0,-100.00,SSE,160,1.0,3.0,98,0.00,,,0.00,0.000000,,2013-07-01 11:43:00,
2013-07-01 03:52:00,48.0,48.0,-100.00,SSE,160,1.0,3.0,98,0.00,,,0.00,0.000000,,2013-07-01 11:52:00,
2013-07-01 04:01:00,48.0,48.0,-100.00,SSE,160,1.0,3.0,98,0.00,,,0.00,0.000000,,2013-07-01 12:01:00,
2013-07-01 04:11:00,48.0,48.0,-100.00,SSE,160,1.0,3.0,98,0.00,,,0.00,0.000000,,2013-07-01 12:11:00,
2013-07-01 04:21:00,48.0,48.0,-100.00,SSE,160,1.0,3.0,98,0.00,,,0.00,0.000000,,2013-07-01 12:21:00,
2013-07-01 04:43:00,48.0,47.0,-100.00,SSE,166,2.0,3.0,96,-99.99,,,0.00,0.000000,,2013-07-01 12:43:00,
2013-07-01 04:53:00,48.0,47.0,-100.00,SSE,166,2.0,3.0,96,-99.99,,,0.00,0.000000,,2013-07-01 12:53:00,
2013-07-01 05:01:00,48.0,47.0,-100.00,SSE,166,2.0,3.0,96,-99.99,,,0.00,0.000000,,2013-07-01 13:01:00,
2013-07-01 05:12:00,48.0,47.0,-100.00,SSE,166,2.0,3.0,96,-99.99,,,0.00,0.000000,,2013-07-01 13:12:00,
2013-07-01 05:23:00,48.0,47.0,-100.00,SSE,166,2.0,3.0,96,-99.99,,,0.00,0.000000,,2013-07-01 13:23:00,
2013-07-01 05:43:00,48.0,47.0,-100.00,SSE,155,1.0,2.0,94,0.00,,,0.00,15.000000,,2013-07-01 13:43:00,
2013-07-01 05:53:00,48.0,47.0,-100.00,SSE,155,1.0,2.0,94,0.00,,,0.00,15.000000,,2013-07-01 13:53:00,
2013-07-01 06:01:00,48.0,47.0,-100.00,SSE,155,1.0,2.0,94,0.00,,,0.00,15.000000,,2013-07-01 14:01:00,
2013-07-01 06:11:00,48.0,47.0,-100.00,SSE,155,1.0,2.0,94,0.00,,,0.00,15.000000,,2013-07-01 14:11:00,
2013-07-01 06:22:00,48.0,47.0,-100.00,SSE,155,1.0,2.0,94,0.00,,,0.00,15.000000,,2013-07-01 14:22:00,
2013-07-01 06:43:00,48.0,46.0,-100.00,SSE,157,1.0,4.0,91,0.00,,,0.00,57.000000,,2013-07-01 14:43:00,
2013-07-01 06:53:00,48.0,46.0,-100.00,SSE,157,1.0,4.0,91,0.00,,,0.00,57.000000,,2013-07-01 14:53:00,
2013-07-01 07:02:00,48.0,46.0,-100.00,SSE,157,1.0,4.0,91,0.00,,,0.00,57.000000,,2013-07-01 15:02:00,
2013-07-01 07:11:00,48.0,46.0,-100.00,SSE,157,1.0,4.0,91,0.00,,,0.00,57.000000,,2013-07-01 15:11:00,
2013-07-01 07:23:00,48.0,46.0,-100.00,SSE,157,1.0,4.0,91,0.00,,,0.00,57.000000,,2013-07-01 15:23:00,
2013-07-01 07:43:00,50.0,48.0,-100.00,West,280,0.0,2.0,93,0.00,,,0.00,70.000000,,2013-07-01 15:43:00,
2013-07-01 07:53:00,50.0,48.0,-100.00,West,280,0.0,2.0,93,0.00,,,0.00,70.000000,,2013-07-01 15:53:00,
2013-07-01 08:01:00,50.0,48.0,-100.00,West,280,0.0,2.0,93,0.00,,,0.00,70.000000,,2013-07-01 16:01:00,
2013-07-01 08:11:00,50.0,48.0,-100.00,West,280,0.0,2.0,93,0.00,,,0.00,70.000000,,2013-07-01 16:11:00,
2013-07-01 08:22:00,50.0,48.0,-100.00,West,280,0.0,2.0,93,0.00,,,0.00,70.000000,,2013-07-01 16:22:00,
2013-07-01 08:44:00,54.0,49.0,-100.00,WNW,282,1.0,4.0,83,-99.99,,,0.00,107.000000,,2013-07-01 16:44:00,
2013-07-01 08:53:00,54.0,49.0,-100.00,WNW,282,1.0,4.0,83,-99.99,,,0.00,107.000000,,2013-07-01 16:53:00,
2013-07-01 09:02:00,54.0,49.0,-100.00,WNW,282,1.0,4.0,83,-99.99,,,0.00,107.000000,,2013-07-01 17:02:00,
2013-07-01 09:12:00,54.0,49.0,-100.00,WNW,282,1.0,4.0,83,-99.99,,,0.00,107.000000,,2013-07-01 17:12:00,
2013-07-01 09:23:00,54.0,49.0,-100.00,WNW,282,1.0,4.0,83,-99.99,,,0.00,107.000000,,2013-07-01 17:23:00,
2013-07-01 09:43:00,54.0,52.0,-100.00,NW,320,0.0,2.0,96,0.02,,,0.02,68.000000,,2013-07-01 17:43:00,
2013-07-01 09:53:00,54.0,52.0,-100.00,NW,320,0.0,2.0,96,0.02,,,0.02,68.000000,,2013-07-01 17:53:00,
2013-07-01 10:02:00,54.0,52.0,-100.00,NW,320,0.0,2.0,96,0.02,,,0.02,68.000000,,2013-07-01 18:02:00,
2013-07-01 10:11:00,54.0,52.0,-100.00,NW,320,0.0,2.0,96,0.02,,,0.02,68.000000,,2013-07-01 18:11:00,
2013-07-01 10:22:00,54.0,52.0,-100.00,NW,320,0.0,2.0,96,0.02,,,0.02,68.000000,,2013-07-01 18:22:00,
2013-07-01 10:44:00,54.0,53.0,-100.00,NNW,346,0.0,2.0,97,0.02,,,0.04,82.000000,,2013-07-01 18:44:00,
2013-07-01 10:53:00,54.0,53.0,-100.00,NNW,346,0.0,2.0,97,0.02,,,0.04,82.000000,,2013-07-01 18:53:00,
2013-07-01 11:01:00,54.0,53.0,-100.00,NNW,346,0.0,2.0,97,0.02,,,0.04,82.000000,,2013-07-01 19:01:00,
2013-07-01 11:11:00,54.0,53.0,-100.00,NNW,346,0.0,2.0,97,0.02,,,0.04,82.000000,,2013-07-01 19:11:00,
2013-07-01 11:21:00,54.0,53.0,-100.00,NNW,346,0.0,2.0,97,0.02,,,0.04,82.000000,,2013-07-01 19:21:00,
2013-07-01 11:53:00,55.0,54.0,-100.00,SSE,158,0.0,1.0,96,-99.99,,,0.03,107.000000,,2013-07-01 19:53:00,
2013-07-01 12:01:00,55.0,54.0,-100.00,SSE,158,0.0,1.0,96,-99.99,,,0.03,107.000000,,2013-07-01 20:01:00,
2013-07-01 12:11:00,55.0,54.0,-100.00,SSE,158,0.0,1.0,96,-99.99,,,0.03,107.000000,,2013-07-01 20:11:00,
2013-07-01 12:21:00,55.0,54.0,-100.00,SSE,158,0.0,1.0,96,-99.99,,,0.03,107.000000,,2013-07-01 20:21:00,
2013-07-01 12:43:00,55.0,55.0,-100.00,East,93,0.0,1.0,97,-99.99,,,0.00,102.000000,,2013-07-01 20:43:00,
2013-07-01 12:52:00,55.0,55.0,-100.00,East,93,0.0,1.0,97,-99.99,,,0.00,102.000000,,2013-07-01 20:52:00,
2013-07-01 13:01:00,55.0,55.0,-100.00,East,93,0.0,1.0,97,-99.99,,,0.00,102.000000,,2013-07-01 21:01:00,
2013-07-01 13:11:00,55.0,55.0,-100.00,East,93,0.0,1.0,97,-99.99,,,0.00,102.000000,,2013-07-01 21:11:00,
2013-07-01 13:23:00,55.0,55.0,-100.00,East,93,0.0,1.0,97,-99.99,,,0.00,102.000000,,2013-07-01 21:23:00,
2013-07-01 13:53:00,55.0,55.0,-100.00,South,172,0.0,2.0,98,0.01,,,0.01,74.000000,,2013-07-01 21:53:00,
2013-07-01 14:01:00,55.0,55.0,-100.00,South,172,0.0,2.0,98,0.01,,,0.01,74.000000,,2013-07-01 22:01:00,
2013-07-01 14:11:00,55.0,55.0,-100.00,South,172,0.0,2.0,98,0.01,,,0.01,74.000000,,2013-07-01 22:11:00,
2013-07-01 14:23:00,55.0,55.0,-100.00,South,172,0.0,2.0,98,0.01,,,0.01,74.000000,,2013-07-01 22:23:00,
2013-07-01 14:43:00,55.0,54.0,-100.00,North,350,1.0,3.0,95,0.03,,,0.04,108.000000,,2013-07-01 22:43:00,
2013-07-01 14:53:00,55.0,54.0,-100.00,North,350,1.0,3.0,95,0.03,,,0.04,108.000000,,2013-07-01 22:53:00,
2013-07-01 15:01:00,55.0,54.0,-100.00,North,350,1.0,3.0,95,0.03,,,0.04,108.000000,,2013-07-01 23:01:00,
2013-07-01 15:11:00,55.0,54.0,-100.00,North,350,1.0,3.0,95,0.03,,,0.04,108.000000,,2013-07-01 23:11:00,
2013-07-01 15:22:00,55.0,54.0,-100.00,North,350,1.0,3.0,95,0.03,,,0.04,108.000000,,2013-07-01 23:22:00,
2013-07-01 15:53:00,55.0,55.0,-100.00,ESE,122,1.0,3.0,97,0.00,,,0.04,138.000000,,2013-07-01 23:53:00,
2013-07-01 16:01:00,55.0,55.0,-100.00,ESE,122,1.0,3.0,97,0.00,,,0.04,138.000000,,2013-07-02 00:01:00,
2013-07-01 16:11:00,55.0,55.0,-100.00,ESE,122,1.0,3.0,97,0.00,,,0.04,138.000000,,2013-07-02 00:11:00,
2013-07-01 16:22:00,55.0,55.0,-100.00,ESE,122,1.0,3.0,97,0.00,,,0.04,138.000000,,2013-07-02 00:22:00,
2013-07-01 16:53:00,55.0,53.0,-100.00,North,352,1.0,5.0,91,-99.99,,,0.00,155.000000,,2013-07-02 00:53:00,
2013-07-01 17:01:00,55.0,53.0,-100.00,North,352,1.0,5.0,91,-99.99,,,0.00,155.000000,,2013-07-02 01:01:00,
2013-07-01 17:11:00,55.0,53.0,-100.00,North,352,1.0,5.0,91,-99.99,,,0.00,155.000000,,2013-07-02 01:11:00,
2013-07-01 17:22:00,55.0,53.0,-100.00,North,352,1.0,5.0,91,-99.99,,,0.00,155.000000,,2013-07-02 01:22:00,
2013-07-01 17:43:00,55.0,55.0,-100.00,SE,136,0.0,2.0,97,0.01,,,0.01,99.000000,,2013-07-02 01:43:00,
2013-07-01 17:53:00,55.0,55.0,-100.00,SE,136,0.0,2.0,97,0.01,,,0.01,99.000000,,2013-07-02 01:53:00,
2013-07-01 18:01:00,55.0,55.0,-100.00,SE,136,0.0,2.0,97,0.01,,,0.01,99.000000,,2013-07-02 02:01:00,
2013-07-01 18:11:00,55.0,55.0,-100.00,SE,136,0.0,2.0,97,0.01,,,0.01,99.000000,,2013-07-02 02:11:00,
2013-07-01 18:21:00,55.0,55.0,-100.00,SE,136,0.0,2.0,97,0.01,,,0.01,99.000000,,2013-07-02 02:21:00,
2013-07-01 18:43:00,55.0,55.0,-100.00,SSE,168,1.0,3.0,99,-99.99,,,0.00,82.000000,,2013-07-02 02:43:00,
2013-07-01 18:53:00,55.0,55.0,-100.00,SSE,168,1.0,3.0,99,-99.99,,,0.00,82.000000,,2013-07-02 02:53:00,
2013-07-01 19:01:00,55.0,55.0,-100.00,SSE,168,1.0,3.0,99,-99.99,,,0.00,82.000000,,2013-07-02 03:01:00,
2013-07-01 19:11:00,55.0,55.0,-100.00,SSE,168,1.0,3.0,99,-99.99,,,0.00,82.000000,,2013-07-02 03:11:00,
2013-07-01 19:23:00,55.0,55.0,-100.00,SSE,168,1.0,3.0,99,-99.99,,,0.00,82.000000,,2013-07-02 03:23:00,
2013-07-01 19:43:00,55.0,55.0,-100.00,South,176,1.0,2.0,98,0.00,,,0.00,65.000000,,2013-07-02 03:43:00,
2013-07-01 19:53:00,55.0,55.0,-100.00,South,176,1.0,2.0,98,0.00,,,0.00,65.000000,,2013-07-02 03:53:00,
2013-07-01 20:02:00,55.0,55.0,-100.00,South,176,1.0,2.0,98,0.00,,,0.00,65.000000,,2013-07-02 04:02:00,
2013-07-01 20:11:00,55.0,55.0,-100.00,South,176,1.0,2.0,98,0.00,,,0.00,65.000000,,2013-07-02 04:11:00,
2013-07-01 20:21:00,55.0,55.0,-100.00,South,176,1.0,2.0,98,0.00,,,0.00,65.000000,,2013-07-02 04:21:00,
2013-07-01 20:42:00,54.0,53.0,-100.00,SSE,166,1.0,3.0,99,0.00,,,0.00,32.000000,,2013-07-02 04:42:00,
2013-07-01 20:53:00,54.0,53.0,-100.00,SSE,166,1.0,3.0,99,0.00,,,0.00,32.000000,,2013-07-02 04:53:00,
2013-07-01 21:01:00,54.0,53.0,-100.00,SSE,166,1.0,3.0,99,0.00,,,0.00,32.000000,,2013-07-02 05:01:00,
2013-07-01 21:11:00,54.0,53.0,-100.00,SSE,166,1.0,3.0,99,0.00,,,0.00,32.000000,,2013-07-02 05:11:00,
2013-07-01 21:22:00,54.0,53.0,-100.00,SSE,166,1.0,3.0,99,0.00,,,0.00,32.000000,,2013-07-02 05:22:00,
2013-07-01 21:43:00,54.0,53.0,-100.00,SSE,155,1.0,4.0,99,0.00,,,0.00,15.000000,,2013-07-02 05:43:00,
2013-07-01 21:53:00,54.0,53.0,-100.00,SSE,155,1.0,4.0,99,0.00,,,0.00,15.000000,,2013-07-02 05:53:00,
2013-07-01 22:01:00,54.0,53.0,-100.00,SSE,155,1.0,4.0,99,0.00,,,0.00,15.000000,,2013-07-02 06:01:00,
2013-07-01 22:11:00,54.0,53.0,-100.00,SSE,155,1.0,4.0,99,0.00,,,0.00,15.000000,,2013-07-02 06:11:00,
2013-07-01 22:23:00,54.0,53.0,-100.00,SSE,155,1.0,4.0,99,0.00,,,0.00,15.000000,,2013-07-02 06:23:00,
2013-07-01 22:43:00,54.0,50.0,-100.00,SE,127,1.0,5.0,88,0.00,,,0.00,3.000000,,2013-07-02 06:43:00,
2013-07-01 22:53:00,54.0,50.0,-100.00,SE,127,1.0,5.0,88,0.00,,,0.00,3.000000,,2013-07-02 06:53:00,
2013-07-01 23:01:00,54.0,50.0,-100.00,SE,127,1.0,5.0,88,0.00,,,0.00,3.000000,,2013-07-02 07:01:00,
2013-07-01 23:11:00,54.0,50.0,-100.00,SE,127,1.0,5.0,88,0.00,,,0.00,3.000000,,2013-07-02 07:11:00,
2013-07-01 23:22:00,54.0,50.0,-100.00,SE,127,1.0,5.0,88,0.00,,,0.00,3.000000,,2013-07-02 07:22:00,
2013-07-01 23:44:00,54.0,50.0,-100.00,NE,34,2.0,5.0,88,0.00,,,0.00,0.000000,,2013-07-02 07:44:00,
2013-07-01 23:53:00,54.0,50.0,-100.00,NE,34,2.0,5.0,88,0.00,,,0.00,0.000000,,2013-07-02 07:53:00,